New Philadelphia, OH

4:28 AM EDT on June 26, 2017 (GMT -0400)
Clever

Weather History for KPHD - August, 2015

Change the Weather History Date:

Wednesday, August 12, 2015

  Actual Average Record
Temperature  
Mean Temperature 67 °F 72 °F  
Max Temperature 80 °F 83 °F 95 °F (1988)
Min Temperature 54 °F 61 °F 43 °F (1968)
Degree Days  
Heating Degree Days 0 0  
Month to date heating degree days 1 0  
Since 1 June heating degree days 24 38  
Since 1 July heating degree days 1 3  
Cooling Degree Days 2 7  
Month to date cooling degree days 58 86  
Year to date cooling degree days 625 506  
Since 1 June cooling degree days 464 463  
Growing Degree Days 18 (Base 50)    
Moisture  
Dew Point 58 °F    
Average Humidity 73    
Maximum Humidity 100    
Minimum Humidity 45    
Precipitation  
Precipitation 0.00 in 0.10 in 1.61 in (1964)
Month to date precipitation 0.01 1.19  
Year to date precipitation 21.48 24.55  
Sea Level Pressure  
Sea Level Pressure 30.05 in    
Wind  
Wind Speed 4 mph (NNW)    
Max Wind Speed 15 mph    
Max Gust Speed 21 mph    
Visibility 9 miles    
Events      
T = Trace of Precipitation, MM = Missing Value Source: NWS Daily Summary

Daily Weather History Graph

Daily Weather History Graph

Search for Another Location

Airport or City:

Trip Planner

Search our weather history database for the weather conditions in past years. The results will help you decide how hot, cold, wet, or windy it might be!

Date:

Astronomy

Aug. 12, 2015 Rise Set
Actual Time 6:33 AM EDT 8:27 PM EDT
Civil Twilight 6:03 AM EDT 8:56 PM EDT
Nautical Twilight 5:27 AM EDT 9:32 PM EDT
Astronomical Twilight 4:48 AM EDT 10:11 PM EDT
Moon 4:43 AM EDT (8/12) 7:05 PM EDT (8/12)
Length of Visible Light 14h 53m
Length of Day
13h 54m
Waning Crescent, 4% of the Moon is Illuminated
Aug 12
Waning Crescent
Aug 14
New
Aug 22
First Quarter
Aug 29
Full
Sep 5
Last Quarter

Hourly Weather History & Observations

Time (EDT) Temp. Dew Point Humidity Pressure Visibility Wind Dir Wind Speed Gust Speed Precip Events Conditions
12:53 AM 62.1 °F 60.1 °F 93% 30.00 in 10.0 mi Calm Calm - N/A   Overcast
1:53 AM 63.0 °F 61.0 °F 93% 30.00 in 10.0 mi Calm Calm - N/A   Overcast
2:53 AM 61.0 °F 59.0 °F 93% 30.00 in 10.0 mi Calm Calm - N/A   Partly Cloudy
3:53 AM 59.0 °F 59.0 °F 100% 30.00 in 7.0 mi Calm Calm - N/A   Clear
4:53 AM 57.0 °F 55.9 °F 96% 30.01 in 2.0 mi Calm Calm - N/A   Partly Cloudy
5:07 AM 57.9 °F 57.9 °F 100% 30.03 in 6.0 mi Calm Calm - N/A   Clear
5:53 AM 59.0 °F 57.9 °F 96% 30.02 in 8.0 mi Calm Calm - N/A   Mostly Cloudy
6:53 AM 57.9 °F 55.9 °F 93% 30.04 in 5.0 mi Calm Calm - N/A   Clear
7:53 AM 63.0 °F 61.0 °F 93% 30.05 in 8.0 mi Calm Calm - N/A   Mostly Cloudy
8:53 AM 66.9 °F 62.1 °F 84% 30.06 in 10.0 mi Calm Calm - N/A   Partly Cloudy
9:53 AM 71.1 °F 61.0 °F 70% 30.07 in 10.0 mi NW 8.1 mph - N/A   Mostly Cloudy
10:53 AM 72.0 °F 60.1 °F 66% 30.07 in 10.0 mi West 6.9 mph - N/A   Mostly Cloudy
11:53 AM 72.0 °F 59.0 °F 64% 30.08 in 10.0 mi NNW 9.2 mph - N/A   Mostly Cloudy
12:53 PM 75.9 °F 59.0 °F 56% 30.06 in 10.0 mi NNW 6.9 mph - N/A   Mostly Cloudy
1:53 PM 75.9 °F 57.9 °F 54% 30.04 in 10.0 mi North 6.9 mph - N/A   Mostly Cloudy
2:53 PM 77.0 °F 55.0 °F 47% 30.04 in 10.0 mi North 10.4 mph - N/A   Mostly Cloudy
3:53 PM 79.0 °F 57.0 °F 47% 30.04 in 10.0 mi NNW 8.1 mph - N/A   Mostly Cloudy
4:53 PM 78.1 °F 55.9 °F 46% 30.04 in 10.0 mi North 10.4 mph 20.7 mph N/A   Scattered Clouds
5:53 PM 75.0 °F 55.9 °F 51% 30.05 in 10.0 mi North 11.5 mph - N/A   Clear
6:53 PM 73.9 °F 55.0 °F 52% 30.05 in 10.0 mi North 10.4 mph - N/A   Clear
7:53 PM 71.1 °F 55.9 °F 59% 30.07 in 10.0 mi North 10.4 mph - N/A   Clear
8:53 PM 66.0 °F 55.0 °F 68% 30.09 in 10.0 mi NNW 4.6 mph - N/A   Clear
9:53 PM 59.0 °F 54.0 °F 83% 30.10 in 10.0 mi Calm Calm - N/A   Clear
10:53 PM 57.0 °F 54.0 °F 89% 30.11 in 10.0 mi Calm Calm - N/A   Clear
11:53 PM 55.0 °F 53.1 °F 93% 30.10 in 10.0 mi Calm Calm - N/A   Clear